User: anonymous   Login
Location: Asni�res
(49.1337°N, 2.3555°E)
Time: 12:52:15
(UTC+00:00)
Language:

Cosmos 1455 Rocket - Orbit

View from above orbital plane
View from above orbital plane
View from above satellite
View from above satellite

Ground track
Ground track

The orbit data is extracted from the following two-line orbital elements,

1 14033U 83037B   22021.92073899  .00000169  00000-0  17405-4 0  9993
2 14033  82.5058 209.9334 0017173 338.9920  21.0587 14.83898743707590
Epoch (UTC): 21 January 2022 22:05:51
Eccentricity: 0.0017173
inclination: 82.5058°
perigee height: 605 km
apogee height: 629 km
right ascension of ascending node: 209.9334°
argument of perigee: 338.9920°
revolutions per day: 14.83898743
mean anomaly at epoch: 21.0587°
orbit number at epoch: 70759

The dashed part of the orbit path shows where the satellite is in the earth's shadow,  

DLR